Borsa Italiana: tutti i dividendi del 2024 a Piazza Affari | Investire.biz

Borsa Italiana: tutti i dividendi del 2024 a Piazza Affari

10 gen 2024 - 14:00

15 mag 2024 - 11:21

Ascolta questo articolo ora...

Quali società di Piazza Affari staccheranno il dividendo nel 2024? Quali offrono il migliore dividend yield? Vediamo tutti i dettagli

Con l’inizio del nuovo anno, ritorna l’interesse da parte degli investitori sul tema dei dividendi delle società quotate su Borsa Italiana. Proprio in vista dello stacco delle cedole, investire.biz ha deciso – come di consueto - di offrire gratuitamente ai propri lettori la possibilità di monitorare con facilità i giorni in cui le aziende staccheranno e poi pagheranno il dividendo.

Vediamo quindi tutti i dividendi di Borsa Italiana in agenda per il 2024 e altre informazioni importanti come la data di stacco, la data di pagamento, il rendimento da dividendo (dividend yield), nonchè il paniere di appartenenza di ogni singola società.

 

I dividendi 2024 di Borsa Italiana mese per mese

Nei prossimi mesi, all’appuntamento con la remunerazione degli azionisti sono attese alcune big cap del FTSE Mib, ma anche società che fanno parte del segmento Mid e Small Cap di Borsa Italiana, tra le altre. Vediamole nel dettaglio mese per mese e tutte le informazioni necessarie per i trader e gli investitori.

 

Gennaio

SOCIETÀ Paniere Data stacco Data pagamento Dividendo 2024 Valuta Dividend Yield
Saccheria F.Lli Franceschetti FTSE Italia Growth 15/01/2024 17/01/2024 0,04300 EUR 3,33
ENEL FTSE Mib 22/01/2024 24/01/2024 0,21500 EUR 3,21
SNAM FTSE Mib 22/01/2024 24/01/2024 0,11280 EUR 2,34
FILA Small Cap 29/01/2024 31/01/2024 0,58000 EUR 6,76

 

Febbraio

SOCIETÀ Paniere Data stacco Data pagamento Dividendo 2024 Valuta Dividend Yield
MITTEL Euronext Milan 05/02/2024 07/02/2024 0,12293 EUR 7,02
BANCA GENERALI FTSE Mib 19/02/2024 21/02/2024 0,65000 EUR 1,92
OVS Mid Cap 19/02/2024 21/02/2024 0,03000 EUR 1,39

 

Marzo

SOCIETÀ Paniere Data stacco Data pagamento Dividendo Valuta Dividend Yield
STMICROELECTRONICS FTSE Mib 18/03/2024 20/03/2024 0,06000 USD 0,14
ENI FTSE Mib 18/03/2024 20/03/2024 0,24000 EUR 1,65

 

Aprile

SOCIETÀ Paniere Data stacco Data pagamento Dividendo Valuta Dividend Yield
AUTOSTRADE MERIDIONALI Small Cap 15/04/2024 17/04/2024 7,19 EUR 51,36
GENERALFINANCE Euronext Star Milan 15/04/2024 17/04/2024 0,59 EUR 5,93
RETI Euronext Growth Milan 15/04/2024 17/04/2024 0,058 EUR 2,76
BANCA MEDIOLANUM FTSE Mib 22/04/2024 24/04/2024 0,42 EUR 4,06
BCO DESIO BRIANZA Euronext Milan 22/04/2024 24/04/2024 0,2634 EUR 5,73
BFF BANK Mid Cap 22/04/2024 24/04/2024 0,541 EUR 4,38
BANCO BPM FTSE Mib 22/04/2024 24/04/2024 0,56 EUR 9,16
BASICNET Small Cap 22/04/2024 24/04/2024 0,15 EUR 3,67
CAMPARI FTSE Mib 22/04/2024 24/04/2024 0,065 EUR 0,71
EDISON R Euronext Milan 22/04/2024 24/04/2024 0,105 EUR 6,63
IVECO GROUP FTSE Mib 22/04/2024 24/04/2024 0,22 EUR 1,58
STELLANTIS FTSE Mib 22/04/2024 05,03,2024 1,55 EUR 5,28
FERRARI FTSE Mib 22/04/2024 05,03,2024 2,443 EUR 0,6
MAIRE TECNIMONT Mid Cap 22/04/2024 24/04/2024 0,197 EUR 2,69
PIAGGIO Mid Cap 22/04/2024 24/04/2024 0,08 EUR 2,77
PRYSMIAN FTSE Mib 22/04/2024 24/04/2024 0,7 EUR 1,41
UNICREDIT FTSE Mib 22/04/2024 24/04/2024 1,8029 EUR 5,29
AVIO Small Cap 29/04/2024 02/05/2024 0,24 EUR 2,37
BANCA SISTEMA Small Cap 29/04/2024 02/05/2024 0,065 EUR 5,02
D’AMICO Mid Cap 29/04/2024 02/05/2024 0,2114 USD 3,18
FIERA MILANO Small Cap 29/04/2024 02/05/2024 0,14 EUR 3,58
SAES GETTERS Mid Cap 29/04/2024 02/05/2024 12,51 EUR 34,09
SERVIZI ITALIA Small Cap 29/04/2024 02/05/2024 0,03 EUR 1,72

 

Maggio

 

SOCIETÀ Paniere Data stacco Data pagamento Dividendo Valuta Dividend Yield
AEROPORTO GUGLIELMO MARCONI DI BOLOGNA Small Cap 06/05/2024 08/05/2024 0,264 EUR 3,38
ALERION CLEAN POWER Mid Cap 06/05/2024 08/05/2024 0,61 EUR 3,32
ASCOPIAVE Mid Cap 06/05/2024 08/05/2024 0,14 EUR 5,73
BANCA PROFILO Small Cap 06/05/2024 08/05/2024 0,0155 EUR 6,92
BIESSE Small Cap 06/05/2024 08/05/2024 0,14 EUR 1,19
CIVITANAVI SYSTEMS Small Cap 06/05/2024 08/05/2024 0,13 EUR 2,14
GEFRAN Small Cap 06/05/2024 08/05/2024 0,42 EUR 5,26
GIBUS FTSE Italia Growth 06/05/2024 08/05/2024 0,5 EUR 5,05
INTERCOS Mid Cap 06/05/2024 08/05/2024 0,18699 EUR 1,42
LUVE Mid Cap 06/05/2024 08/05/2024 0,4 EUR 1,81
OPENJOBMETIS Small Cap 06/05/2024 08/05/2024 0,5 EUR 3,06
ITALMOBILIARE Mid Cap 06/05/2024 08/05/2024 3 EUR 8,66
SOGEFI Small Cap 06/05/2024 08/05/2024 0,2 EUR 6,87
VALSOIA Small Cap 06/05/2024 08/05/2024 0,38 EUR 3,88
INTRED FTSE Italia Growth 06/05/2024 08/05/2024 0,1 EUR 1,06
ITALIAN WINE BRANDS FTSE Italia Growth 06/05/2024 08/05/2024 0,5 EUR 2,6
PHARMANUTRA Mid Cap 06/05/2024 08/05/2024 0,85 EUR 1,59
DIRECTA SIM FTSE Italia Growth 13/05/2024 15/05/2024 0,17 EUR 4,3
INTERMONTE PARTNERS SIM FTSE Italia Growth 13/05/2024 15/05/2024 0,26 EUR 9,39
CEMBRE Mid Cap 13/05/2024 15/05/2024 1,8 EUR 4,11
COMER INDUSTRIES Mid Cap 13/05/2024 15/05/2024 1,25 EUR 3,73
ORSERO Small Cap 13/05/2024 15/05/2024 0,6 EUR 4,16
SALCEF GROUP Mid Cap 13/05/2024 15/05/2024 0,55 EUR 2,13
ZIGNAGO VETRO Mid Cap 13/05/2024 15/05/2024 0,75 EUR 5,91
CREDEM Mid Cap 13/05/2024 15/05/2024 0,45 EUR 4,58
A2A FTSE Mib 20/05/2024 22/05/2024 0,0958 EUR 5,17
AMPLIFON FTSE Mib 20/05/2024 22/05/2024 0,29 EUR 0,92
AZIMUT FTSE Mib 20/05/2024 22/05/2024 1 EUR 4,07
ANIMA HOLDING Mid Cap 20/05/2024 22/05/2024 0,25 EUR 5,66
ARISTON HOLDING Mid Cap 20/05/2024 22/05/2024 0,17 EUR 3,42
BANCA GENERALI FTSE Mib 20/05/2024 22/05/2024 1,55 EUR 4,23
BANCA IFIS Mid Cap 20/05/2024 22/05/2024 0,9 EUR 4,26
BPER BANCA FTSE Mib 20/05/2024 22/05/2024 0,3 EUR 6,28
BREMBO Mid Cap 20/05/2024 22/05/2024 0,3 EUR 2,47
BANCA MPS FTSE Mib 20/05/2024 22/05/2024 0,25 EUR 5,59
BCA POP SONDRIO FTSE Mib 20/05/2024 22/05/2024 0,56 EUR 7,23
BUZZI Mid Cap 20/05/2024 22/05/2024 0,6 EUR 1,75
BRUNELLO CUCINELLI FTSE Mib 20/05/2024 22/05/2024 0,91 EUR 0,94
GENERALI ASS FTSE Mib 20/05/2024 22/05/2024 1,28 EUR 5,57
CALTAGIRONE Mid Cap 20/05/2024 22/05/2024 0,25 EUR 4,79
CALTAGIRONE EDIT Euronext Milan 20/05/2024 22/05/2024 0,04 EUR 3,57
CELLULARLINE Small Cap 20/05/2024 22/05/2024 0,087 EUR 3,14
CEMENTIR HOLDING Mid Cap 20/05/2024 22/05/2024 0,28 EUR 2,81
DE'LONGHI Mid Cap 20/05/2024 22/05/2024 0,67 EUR 2,15
DIASORIN FTSE Mib 20/05/2024 22/05/2024 1,15 EUR 1,2
EL.EN. Mid Cap 20/05/2024 22/05/2024 0,2 EUR 1,69
ERG FTSE Mib 20/05/2024 22/05/2024 1 EUR 3,92
ENERVIT Small Cap 20/05/2024 22/05/2024 0,13 EUR 4,06
ENI FTSE Mib 20/05/2024 22/05/2024 0,23 EUR 1,5
EQUITA GROUP Small Cap 20/05/2024 22/05/2024 0,2 EUR 4,98
FINECOBANK FTSE Mib 20/05/2024 22/05/2024 0,69 EUR 4,87
FILA Small Cap 20/05/2024 22/05/2024 0,12 EUR 1,36
INWIT FTSE Mib 20/05/2024 22/05/2024 0,48 EUR 4,8
INTESA SANPAOLO FTSE Mib 20/05/2024 22/05/2024 0,152 EUR 4,3
ITALGAS FTSE Mib 20/05/2024 22/05/2024 0,352 EUR 6,74
INTERPUMP GROUP FTSE Mib 20/05/2024 22/05/2024 0,32 EUR 0,78
INDUSTRIE DE NORA Mid Cap 20/05/2024 22/05/2024 0,123 EUR 0,98
IMMSI Small Cap 20/05/2024 22/05/2024 0,025 EUR 4,56
IRCE Small Cap 20/05/2024 22/05/2024 0,06 EUR 2,68
ILLIMITY BANK Small Cap 20/05/2024 22/05/2024 0,2488 EUR 4,81
ITALIAN EXHIBITION GROUP Small Cap 20/05/2024 22/05/2024 0,14 EUR 2,98
MARR Mid Cap 20/05/2024 22/05/2024 0,6 EUR 4,97
REPLY Mid Cap 20/05/2024 22/05/2024 1 EUR 0,81
REVO INSURANCE FTSE Italia Star 20/05/2024 22/05/2024 0,084 EUR 0,95
RECORDATI ORD FTSE Mib 20/05/2024 22/05/2024 0,63 EUR 1,28
LOTTOMATICA GROUP Mid Cap 20/05/2024 22/05/2024 0,26 EUR 2,48
MONCLER FTSE Mib 20/05/2024 22/05/2024 1,15 EUR 1,77
MEDIOBANCA FTSE Mib 20/05/2024 22/05/2024 0,51 EUR 3,36
SALVATORE FERRAGAMO Mid Cap 20/05/2024 22/05/2024 0,1 EUR 1,06
SARAS Mid Cap 20/05/2024 22/05/2024 0,15 EUR 8,47
SANLORENZO Mid Cap 20/05/2024 22/05/2024 1 EUR 2,43
TENARIS FTSE Mib 20/05/2024 22/05/2024 0,4 USD 2,53
THE ITALIAN SEA GROUP Mid Cap 20/05/2024 22/05/2024 0,37 EUR 3,87
TXT E-SOLUTIONS Small Cap 20/05/2024 22/05/2024 0,25 EUR 1,17
UNIPOL FTSE Mib 20/05/2024 22/05/2024 0,38 EUR 4,52
UNIPOLSAI Mid Cap 20/05/2024 22/05/2024 0,165 EUR 6,16
WEBUILD RSP Euronext Milan 20/05/2024 22/05/2024 0,071 EUR 0,68
WIIT Small Cap 20/05/2024 22/05/2024 0,3 EUR 1,83
ENAV Mid Cap 27/05/2024 29/05/2024 0,23 EUR 5,95
PIOVAN Small Cap 27/05/2024 29/05/2024 0,27 EUR 2,22
SABAF Small Cap 27/05/2024 29/05/2024 0,54 EUR 3,11

 

Giugno

SOCIETÀ Paniere Data stacco Data pagamento Dividendo Valuta Dividend Yield
TINEXTA Mid Cap 03/06/2024 05/06/2024 0,46 EUR 2,45
EMAK Small Cap 03/06/2024 05/06/2024 0,045 EUR 3,89
FNM Small Cap 03/06/2024 05/06/2024 0,023 EUR 5,3
ACEA Mid Cap 24/06/2024 26/06/2024 0,88 EUR 5,56
CAREL INDUSTRIES Mid Cap 24/06/2024 26/06/2024 0,19 EUR 0,92
PIRELLI FTSE Mib 24/06/2024 26/06/2024 0,198 EUR 3,54
POWERSOFT FTSE Italia Growth 24/06/2024 26/06/2024 0,85 EUR 5,56
POSTE ITALIANE FTSE Mib 24/06/2024 26/06/2024 0,563 EUR 4,93
FERRETTI Mid Cap 24/06/2024 26/06/2024 0,097 EUR 0,37
LEONARDO FTSE Mib 24/06/2024 26/06/2024 0,28 EUR 1,23
SNAM FTSE Mib 24/06/2024 26/06/2024 0,1692 EUR 3,86
TAMBURI Mid Cap 24/06/2024 26/06/2024 0,15 EUR 1,5
TERNA FTSE Mib 24/06/2024 26/06/2024 0,225 EUR 2,89

 

Luglio

SOCIETÀ Paniere Data stacco Data pagamento Dividendo Valuta Dividend Yield
ELICA Small Cap 01/07/2024 03/07/2024 0,05 EUR 2,63
ACINQUE Euronext Milan 08/07/2024 10/07/2024 0,085 EUR 4,31
MUTUIONLINE Mid Cap 08/07/2024 10/07/2024 0,12 EUR 0,32
DATALOGIC Small Cap 15/07/2024 17/07/2024 0,12 EUR 2,17
ENEL FTSE Mib 22/07/2024 24/07/2024 0,215 EUR 3,55

 

Agosto

SOCIETÀ Paniere Data stacco Data pagamento Dividendo Valuta Dividend Yield
MASI AGRICOLA FTSE Italia Growth 09/09/2024 11/09/2024 0,03 EUR 0,61

 

Settembre

SOCIETÀ Paniere Data stacco Data pagamento Dividendo Valuta Dividend Yield
GROWENS FTSE Italia Growth 02/09/2024 04/09/2024 0,79 EUR 12,99

 

Ottobre

SOCIETÀ Paniere Data stacco Data pagamento Dividendo Valuta Dividend Yield
CREDEM Mid Cap 14/10/2024 16/10/2024 0,2 EUR 2,13

 

Novembre

SOCIETÀ Paniere Data stacco Data pagamento Dividendo Valuta Dividend Yield
Equita Group Small Cap 18/11/2024 20/11/2024 0,15 EUR 3,81
Mondadori Edit Mid Cap 18/11/2024 20/11/2024 0,06 EUR 2,6

 

 

Dividendo azionario: a chi spetta?

Ora che abbiamo visto i dividendi di Borsa Italiana nel 2024, la domanda sporge spontanea: a chi spetta il dividendo?

Matura il diritto ad incassare il dividendo l'azionista che possiede l'azione all’apertura del giorno in cui il titolo stacca la cedola, mentre nel giorno di pagamento il singolo azionista riceve materialmente l’importo corrispondente al dividendo staccato.

Per cui già all'apertura delle contrattazioni del giorno di pagamento potranno essere messi in vendita i titoli posseduti mantenendo il diritto ad incassare il dividendo, in quanto nello stesso giorno il titolo quoterà già ex dividendo (clicca qui per la guida definitiva ai dividendi azionari).

 

0 - Commenti

I Nostri Partners



Malta

ELP Finance LTD

34, Wied Ghomor Street, St. Julians STJ 2043 – Malta

+356 20 341590

Switzerland

ELP SA

Corso San Gottardo 8A, 6830 Chiasso, Switzerland

+41 91 9228169

Investire.biz non offre servizi finanziari, regolamentati o di investimento. Le informazioni presenti sul sito non devono essere considerate consigli di investimento personalizzati e sono disseminate sul sito e accessibili al pubblico in generale. Tutti i link e i banner sui siti web della società puntano verso società finanziarie, fornitori di servizi di investimento o banche regolamentate in Europa. Si prega di leggere Dichiarazione di non responsabilità, Informativa sui rischi, Informativa sul trattamento dei dati personali e Termini e condizioni prima di utilizzare questo sito Web.

L’utilizzo del presente sito è soggetto al diritto svizzero, che ha giurisdizione esclusiva in relazione all’interpretazione, applicazione ed effetti delle condizioni d’uso. Il tribunale cantonale competente avrà giurisdizione esclusiva su tutti i reclami o le controversie derivanti da, in relazione a o in relazione al presente sito web ed al suo utilizzo.

Le informazioni presenti sul sito web non devono essere considerate consigli di investimento personalizzati e sono disseminate sul sito e accessibili al pubblico in generale. Tutti i link e i banner sui siti web di ELP SA o ELP Finance LTD (di seguito il “gruppo ELP” o “ELP”) indirizzano verso società finanziarie, fornitori di servizi di investimento o banche regolamentate in Europa. Gli strumenti finanziari menzionati nel presente sito web possono essere soggetti a restrizioni di vendita in alcune giurisdizioni.

Continuando ad accedere o utilizzare questo sito web o qualsiasi servizio su questo sito, dichiari di accettarne i termini e condizioni. Tutti gli investimenti finanziari comportano un certo livello di rischio. Il trading e la speculazione finanziaria comportano un alto livello di rischio e potrebbe non essere adatto a tutti gli investitori. Prima di decidere di investire dovresti considerare attentamente i tuoi obiettivi di investimento, il livello della tua esperienza, la tua disponibilità ad assumersi dei rischi e consultare un consulente indipendente. C'è sempre la possibilità di perdere l'investimento, per intero o parte di esso. Quindi ti suggeriamo di investire denaro che puoi permetterti di perdere.

Dichiarazione di non responsabilità - Informativa sui rischi - MAR - Informativa sul trattamento dei dati personali - Termini e condizioni - Codice Etico - Cookie policy - Privacy Policy

© 2024 Investire.biz, all rights reserved.